SWR4TH LSZH-LSGG

Flight info

Callsign SWR4TH
Flight time N/A
Altitude 18000
Route VEBIT T50 ROTOS Z669 ULMES
Aircraft E190/M-SDE1E2E3GIRWYZ/LB1

Departure

Time 2026-05-04 18:10
Airport Zürich Airport (LSZH)

Arrival

Time N/A
Airport Geneva International Airport (LSGG)
Time Latitude Longitude Altitude Speed Heading
2026-05-04 17:22 47.45603 8.55478 1411 ft 0 kts
2026-05-04 17:31 47.45604 8.55478 1401 ft 0 kts
2026-05-04 18:03 47.45616 8.55479 1409 ft 6 kts
2026-05-04 18:03 47.45660 8.55497 1403 ft 4 kts 49°
2026-05-04 18:03 47.45660 8.55551 1407 ft 0 kts 95°
2026-05-04 18:04 47.45652 8.55672 1404 ft 9 kts 96°
2026-05-04 18:05 47.45644 8.55776 1412 ft 14 kts 96°
2026-05-04 18:05 47.45633 8.55953 1411 ft 20 kts 96°
2026-05-04 18:05 47.45619 8.56156 1410 ft 19 kts 97°
2026-05-04 18:05 47.45616 8.56188 1416 ft 0 kts 97°
2026-05-04 18:06 47.45604 8.56356 1419 ft 11 kts 96°
2026-05-04 18:06 47.45595 8.56463 1413 ft 11 kts 96°
2026-05-04 18:06 47.45588 8.56570 1418 ft 9 kts 95°
2026-05-04 18:07 47.45588 8.56575 1417 ft 0 kts 95°
2026-05-04 18:07 47.45584 8.56635 1416 ft 14 kts 96°
2026-05-04 18:08 47.45570 8.56833 1419 ft 20 kts 96°
2026-05-04 18:08 47.45562 8.56945 1419 ft 1 kts 96°
2026-05-04 18:08 47.45560 8.56967 1419 ft 3 kts 96°
2026-05-04 18:08 47.45579 8.57012 1421 ft 6 kts 18°
2026-05-04 18:09 47.45665 8.56988 1423 ft 0 kts 276°
2026-05-04 18:09 47.45666 8.56979 1423 ft 0 kts 276°
2026-05-04 18:10 47.45671 8.56902 1422 ft 18 kts 275°
2026-05-04 18:10 47.45716 8.56267 1417 ft 105 kts 277°
2026-05-04 18:10 47.45820 8.54799 1510 ft 174 kts 274°
2026-05-04 18:10 47.45930 8.52790 2193 ft 216 kts 274°
2026-05-04 18:11 47.46049 8.50468 3371 ft 228 kts 275°
2026-05-04 18:11 47.46175 8.48142 4902 ft 231 kts 274°
2026-05-04 18:11 47.46090 8.45615 5580 ft 265 kts 258°